Location: Kopyt�wka
(49.9385°N, 19.6407°E)
Time: 13:45:22
(UTC+00:00)

Daily predictions for brighter satellites

Satellite Brightness Start Highest point End
(mag) Time Altitude Azimuth Time Altitude Azimuth Time Altitude Azimuth
Cosmos 1844 Rocket 2.7 18:41:28 10° SSW 18:47:03 85° ESE 18:52:41 10° NNE
Cosmos 1602 4.2 18:45:54 10° N 18:49:39 45° ENE 18:53:22 10° SSE
CZ-4C R/B 3.2 18:42:51 10° NW 18:49:45 64° NE 18:57:52 10° ESE
USA 305 3.4 18:45:41 10° WNW 18:49:55 60° NNE 18:54:09 10° E
Landsat 7 4.3 18:45:27 10° SE 18:49:59 47° ENE 18:54:33 10° N
Cosmos 1606 3.2 18:46:17 10° SSW 18:50:02 63° WNW 18:53:49 10° N
Cosmos 1782 3.7 18:48:53 10° SSE 18:52:26 31° E 18:55:59 10° NNE
IGS 5A 3.8 18:49:15 10° SSE 18:53:15 51° ENE 18:57:18 10° N
ERS-1 Rocket 4.5 18:51:21 10° ESE 18:55:11 23° ENE 18:59:02 10° N
Cosmos 1805 Rocket 3.9 18:50:57 10° NNW 18:55:18 70° W 18:59:37 10° S
Cosmos 1242 Rocket 2.7 18:53:01 10° S 18:56:30 51° E 18:59:57 10° NNE
MOS 1-B Rocket 4.5 18:53:46 10° NNE 19:01:28 87° WNW 19:07:57 10° SSW
Cosmos 1633 Rocket 3.3 18:57:11 10° N 19:01:32 55° ENE 19:05:51 10° SSE
SJ-6B 4.3 18:59:07 10° SSW 19:02:45 36° W 19:06:28 10° NNW
ATLAS 5 CENTAUR R/B 2.6 18:57:37 10° NW 19:03:06 65° SW 19:09:33 10° SSE
Meteor 1-25 Rocket 4.4 18:58:40 10° NNW 19:04:33 87° W 19:10:25 10° S
USA 306 3.1 19:05:01 10° WNW 19:09:17 69° NNE 19:13:32 10° ESE
Cosmos 1503 Rocket 3.9 19:04:54 10° SSW 19:10:03 75° ESE 19:15:18 10° NNE
Cosmos 1328 Rocket 4.0 19:09:11 10° SSE 19:13:24 44° E 19:17:36 10° NNE
Cosmos 1470 Rocket 4.1 19:09:25 10° N 19:13:43 44° ENE 19:17:51 11° SSE
Cosmos 1812 3.9 19:12:17 10° SE 19:15:27 26° E 19:18:41 10° NNE
Cosmos 1844 4.0 19:11:18 10° SW 19:17:01 74° WNW 19:22:42 10° NNE
Ariane Rocket 3.9 19:13:29 10° S 19:18:23 49° W 19:23:19 10° NNW
ARIANE 5 R/B 3.3 19:14:50 11° SE 19:18:39 39° ENE 19:22:42 10° N
SOZ 4.2 19:16:04 10° WSW 19:18:52 81° SSE 19:21:06 10° ENE
Cosmos 1833 Rocket 2.9 19:14:37 10° NNW 19:20:15 62° ENE 19:25:22 13° SE
Cosmos 1666 3.8 19:19:44 10° N 19:23:02 29° ENE 19:25:37 14° SE
CARTOSAT-1 4.3 19:19:36 12° SE 19:23:15 40° ENE 19:27:17 10° N
Cosmos 1709 Rocket 4.0 19:18:14 10° N 19:24:24 89° WSW 19:30:30 10° S
Cosmos 1933 Rocket 4.2 19:23:51 10° N 19:27:58 40° ENE 19:31:17 15° SE
NOSS 3-4 (A) 4.1 19:22:57 10° NW 19:29:40 62° NE 19:36:40 12° ESE
NOSS 3-4 (C) 4.1 19:23:03 10° NW 19:29:47 61° NE 19:36:47 12° ESE
Cosmos 1666 Rocket 3.9 19:25:31 10° NNW 19:29:54 66° W 19:34:13 10° S
Cosmos 2074 Rocket 4.5 19:26:19 10° N 19:32:23 46° ENE 19:37:31 14° SE
USA 307 2.9 19:31:38 10° WNW 19:35:55 84° NNE 19:39:32 14° ESE
Cosmos 1437 2.4 19:33:32 10° S 19:36:18 63° E 19:39:07 10° NNE
CZ-2C R/B 3.7 19:32:09 10° NNE 19:36:38 67° ESE 19:41:09 10° S
NOSS 3-3 (A) 3.9 19:34:32 10° SSW 19:40:17 71° SE 19:46:55 10° NE
NOSS 3-3 (C) 3.9 19:34:39 10° SSW 19:40:24 70° SE 19:47:01 10° NE
ATLAS 2AS CENTAUR R/B 3.5 19:35:46 10° NW 19:43:07 51° NE 19:49:39 11° ESE
Cosmos 1354 Rocket 4.3 19:38:02 10° SSW 19:43:15 71° WNW 19:48:32 10° NNE
USA 245 1.8 19:43:37 24° SSE 19:44:46 89° WNW 19:47:03 10° NNW
SJ 16-02 2.0 19:42:36 15° SSE 19:45:49 35° ESE 19:49:51 10° NE
SPOT 1/Viking Rocket 3.6 19:42:56 11° SSE 19:47:53 80° WSW 19:53:06 10° NNW
Meteor 1-26 Rocket 4.4 19:43:06 10° SSW 19:48:46 74° WNW 19:54:17 10° N
USA 308 2.9 19:45:13 10° WNW 19:49:31 85° SSW 19:52:37 18° ESE
Cosmos 2315 Rocket 4.2 19:44:11 10° SSW 19:50:34 81° W 19:57:00 10° N
USA 215 4.2 19:45:35 10° ENE 19:51:48 48° N 19:58:01 10° WNW
Cosmos 1500 3.4 19:49:20 10° NNW 19:53:04 67° W 19:56:07 15° S
Iridium 4 Rocket 4.0 19:51:14 15° SSE 19:55:57 58° E 20:01:46 10° N
Terra 2.3 19:54:08 19° SE 19:57:15 47° ENE 20:01:50 10° N
BREEZE M DEB (TANK) 1.7 19:54:26 10° W 19:58:44 61° SSW 19:59:41 31° SE
Cosmos 2082 Rocket 2.3 19:54:27 10° NNW 20:00:05 66° ENE 20:03:59 20° SE
SPOT 5 3.1 19:59:19 19° SSE 20:03:00 73° ENE 20:08:19 10° N
Cosmos 1151 Rocket 4.0 19:58:59 10° SSW 20:03:13 49° WNW 20:07:30 10° N
Cosmos 158 Rocket 3.9 19:59:04 10° NNW 20:03:57 68° ENE 20:07:03 22° SE
X-37B 2.8 20:02:45 10° WSW 20:04:25 13° SSW 20:04:43 13° SSW
CREW DRAGON DEMO-1 DEB 2.8 20:02:10 10° W 20:04:44 48° SSW 20:05:17 39° SSE
COSMOS 2406 3.4 20:00:48 10° NNW 20:06:25 66° WSW 20:10:34 19° SSE
ERBS 4.2 20:04:16 10° NW 20:07:10 27° NNE 20:10:05 10° ENE
Resurs 01 Rocket 3.4 20:03:37 10° SSW 20:07:26 28° W 20:11:16 10° NW
Cosmos 2084 3.5 20:04:28 10° SW 20:08:37 76° NW 20:12:55 10° NE
Cosmos 44 4.3 20:04:20 10° NNW 20:09:37 45° NE 20:13:35 16° ESE
Cosmos 2228 Rocket 3.6 20:08:08 24° SSE 20:10:22 43° E 20:14:37 10° NNE
Cosmos 1538 Rocket 4.3 20:09:47 10° NNW 20:15:07 66° WSW 20:18:46 20° S
Meteor 2-6 Rocket 4.1 20:12:08 11° S 20:17:28 90° E 20:23:03 10° NNE
Meteor 1-27 Rocket 4.1 20:16:22 22° SSE 20:19:58 50° E 20:25:39 10° NNE
Cosmos 1271 Rocket 2.7 20:19:16 24° S 20:21:36 74° E 20:25:38 10° NNE
Spot 2 Rocket 4.1 20:22:06 16° S 20:26:00 50° W 20:30:56 10° NNW
Cosmos 2278 Rocket 2.2 20:20:49 10° SSW 20:26:29 89° NW 20:32:12 10° NNE
BREEZE-M DEB (TANK) 1.4 20:26:08 10° W 20:27:55 51° SW 20:27:55 51° SW
SL-24 R/B - RUBIN 2 4.4 20:23:35 10° NW 20:29:12 59° NE 20:32:16 23° ESE
USA 305 3.3 20:25:44 10° WNW 20:29:51 48° SW 20:31:23 32° SSE
Cosmos 1680 Rocket 3.7 20:26:23 10° NNW 20:31:43 66° ENE 20:34:33 28° SE
CZ-4B DEB 4.2 20:31:49 43° S 20:32:46 86° WSW 20:36:00 10° NNW
Cosmos 1943 Rocket 3.3 20:32:27 22° ESE 20:33:33 24° ESE 20:37:55 10° NE
ERS-1 Rocket 3.3 20:30:20 22° S 20:33:34 63° WSW 20:38:35 10° NNW
Cosmos 1515 Rocket 4.3 20:29:37 10° SSW 20:33:54 52° WNW 20:38:13 10° N
Gbstr 26 Del rocket 4.2 20:27:22 10° WNW 20:35:06 83° N 20:41:19 11° E
Cosmos 2369 Rocket 4.0 20:35:25 13° E 20:35:49 13° E 20:38:25 10° ENE
Cosmos 1869 Rocket 3.4 20:32:38 10° N 20:37:00 86° E 20:38:55 33° SSE
CZ-4C R/B 3.7 20:31:31 10° NW 20:38:22 44° WSW 20:43:47 20° S
Cosmos 1238 Rocket 4.4 20:37:43 10° N 20:43:43 44° ENE 20:46:24 27° SE
Meteor 1-11 Rocket 4.0 20:38:17 10° NNW 20:44:16 73° W 20:47:53 25° S
USA 306 3.6 20:45:08 10° WNW 20:49:05 37° SW 20:49:58 33° S
Cosmos 1818 4.0 20:44:58 10° NW 20:50:25 59° NE 20:53:34 25° ESE
SL-8 Rocket 4.4 20:47:35 10° N 20:53:46 51° ENE 20:56:54 28° SE
Cosmos 1340 Rocket 2.8 20:50:09 10° N 20:54:16 78° ENE 20:55:28 44° SSE
Okean 1 4.3 20:53:59 30° ESE 20:54:24 31° E 20:57:56 10° NNE
ARIANE 5 R/B 4.3 20:52:22 14° SW 20:55:14 25° W 20:58:52 10° NW
Cosmos 1707 Rocket 3.7 20:55:52 40° SSE 20:57:05 55° E 21:01:25 10° NNE
EP 1 4.3 20:58:08 82° N 20:58:08 82° N 21:00:42 10° NE
Cosmos 1833 Rocket 4.3 20:59:13 10° NW 21:03:46 25° WSW 21:07:04 15° SSW
ALOS 2 4.1 21:03:43 22° E 21:05:19 27° ENE 21:09:02 10° N
Cosmos 2154 Rocket 4.3 20:59:43 10° NNW 21:05:58 62° W 21:09:42 25° SSW
Cosmos 923 Rocket 4.5 21:02:49 10° NNW 21:07:56 52° WSW 21:10:12 31° SSW
BREEZE-M R/B 2.5 21:05:59 10° W 21:07:49 48° W 21:07:49 48° W
Cosmos 1536 3.5 21:05:17 10° NNW 21:09:12 48° W 21:10:33 33° SW
Cosmos 1898 Rocket 3.5 21:07:15 34° S 21:09:32 67° ESE 21:14:51 10° NNE
Cosmos 1743 2.7 21:09:50 10° NNW 21:13:42 78° W 21:14:28 54° S
USA 307 4.1 21:11:57 10° W 21:15:34 27° SW 21:15:37 27° SW
H-2A R/B 4.2 21:11:54 10° N 21:15:58 49° WNW 21:18:18 23° SW
Cosmos 962 Rocket 4.5 21:13:52 10° NNW 21:20:01 79° W 21:22:54 33° S
NOSS 3-4 (A) 4.5 21:13:59 10° NW 21:20:33 43° WSW 21:24:06 27° S
NOSS 3-4 (C) 4.5 21:14:06 10° NW 21:20:40 43° WSW 21:24:12 27° S
Cosmos 990 Rocket 4.0 21:20:01 27° SSW 21:22:59 81° WNW 21:28:16 10° NNE
Cosmos 1975 3.2 21:20:16 10° N 21:24:08 47° ENE 21:24:44 43° ESE
SJ 16-02 3.1 21:20:27 10° WSW 21:24:25 31° WNW 21:28:24 10° N
Cosmos 2297 3.6 21:22:46 33° SSW 21:25:23 73° ESE 21:31:04 10° NNE
RESURS DK-1 4.0 21:22:06 10° NNW 21:25:46 29° NE 21:27:38 20° E
Cosmos 1733 Rocket 2.9 21:22:29 10° N 21:26:50 86° WSW 21:27:49 53° S
Cosmos 372 Rocket 4.4 21:27:07 38° SE 21:27:56 40° ESE 21:32:41 10° NE
USA 308 4.5 21:25:44 10° W 21:28:43 22° SW 21:28:43 22° SW
Cosmos 1461 3.8 21:31:04 37° ESE 21:31:04 37° ESE 21:35:11 10° NE
Cosmos 1900 4.3 21:30:21 39° SSW 21:32:13 72° SE 21:37:16 10° NE
ATLAS 2AS CENTAUR R/B 3.0 21:27:05 10° NW 21:34:14 55° WSW 21:37:04 34° S
USA 215 3.6 21:27:54 10° E 21:34:21 65° NNE 21:40:48 10° WNW
Terra 3.5 21:33:01 18° SW 21:35:14 25° W 21:39:11 10° NW
Meteor 1-18 Rocket 4.3 21:33:59 40° SSE 21:35:52 63° E 21:41:23 10° NNE
Cosmos 1544 4.4 21:33:14 10° NNW 21:36:25 30° W 21:37:03 28° WSW
Cosmos 1908 Rocket 4.0 21:37:12 10° N 21:41:37 54° ENE 21:42:34 45° ESE
ERBS 2.4 21:40:18 10° WNW 21:43:15 68° NW 21:43:15 68° NW
Cosmos 2082 Rocket 3.7 21:39:18 10° NW 21:43:41 24° WSW 21:45:50 19° SW
Cosmos 2181 Rocket 3.9 21:44:37 37° S 21:47:14 88° ESE 21:53:25 10° N
Cosmos 44 4.0 21:45:48 10° NW 21:50:54 43° WSW 21:51:59 38° SSW
Cosmos 967 Rocket 4.4 21:49:31 25° SW 21:53:26 90° NW 21:59:46 10° NE
Cosmos 2366 rocket 4.0 21:47:18 10° NNW 21:53:29 79° W 21:55:56 39° S
Cosmos 1821 Rocket 4.5 21:47:45 10° N 21:54:02 54° ENE 21:56:46 32° SE
Spot 4 4.0 21:55:19 47° SSW 21:56:32 64° WSW 22:01:23 10° NNW
SAR-Lupe-2 4.2 21:55:32 10° NNE 21:58:38 44° E 21:58:38 44° E
Cosmos 2084 Rocket 3.9 21:55:06 10° NW 21:59:12 45° SW 21:59:14 45° SW
ATLAS CENTAUR R/B 3.4 22:02:23 14° E 22:02:23 14° E 22:03:16 10° ENE
BREEZE-M DEB (TANK) 2.7 21:58:55 10° WNW 22:03:22 58° N 22:03:26 58° NNE
Cosmos 2278 Rocket 4.5 22:07:00 10° W 22:11:23 22° NW 22:15:48 10° NNE
Cosmos 1862 Rocket 4.1 22:10:39 39° WSW 22:11:45 49° WNW 22:15:58 10° N
Cosmos 1937 Rocket 4.0 22:09:32 28° SW 22:12:04 55° WNW 22:17:10 10° NNE
Cosmos 1703 Rocket 3.6 22:11:43 59° SE 22:12:12 64° E 22:16:35 10° NNE
Cosmos 1782 Rocket 3.7 22:09:01 10° N 22:13:28 63° ENE 22:14:13 53° SE
Okean 3 4.4 22:14:16 35° E 22:14:33 35° E 22:18:26 10° NNE
Cosmos 2218 Rocket 4.4 22:09:41 10° NNW 22:15:47 54° W 22:18:16 34° SSW
Cosmos 1943 Rocket 2.4 22:13:55 29° SW 22:16:49 66° WNW 22:22:25 10° NNE
Cosmos 2369 Rocket 2.1 22:17:10 46° S 22:18:52 77° ESE 22:24:32 10° NNE
Gbstr 26 Del rocket 4.1 22:15:19 10° WNW 22:22:17 54° SW 22:23:48 44° S
Cosmos 1048 Rocket 3.9 22:18:54 10° NNW 22:24:16 86° WSW 22:25:40 51° SSE
COBE Rocket 4.0 22:24:30 52° S 22:25:43 75° WSW 22:30:54 10° NNW
Gblst 52 Del rocket 4.4 22:20:52 10° WNW 22:27:35 61° SSW 22:29:37 41° SSE
COSMOS 2487 4.5 22:25:59 10° N 22:28:37 20° NE 22:29:34 18° E
Cosmos 1607 4.1 22:26:50 42° S 22:28:47 59° ESE 22:35:10 10° NE
Okean 1-7 2.8 22:31:00 70° SSW 22:31:27 86° W 22:35:46 10° N
Thor Agena Rocket 3.7 22:26:42 10° NNE 22:31:55 64° ESE 22:33:11 48° SSE
EO 1 Del DPAF 4.4 22:33:08 10° NNE 22:36:19 31° E 22:36:19 31° E
Cosmos 2298 Rocket 4.0 22:35:32 52° S 22:36:47 72° ESE 22:42:04 10° NNE
Cosmos 1656 Rocket 3.6 22:35:34 50° S 22:36:54 69° ESE 22:42:25 10° NNE
Nadezhda 3 Rocket 3.9 22:35:11 43° S 22:37:24 80° E 22:43:38 10° NNE
Cosmos 1805 3.8 22:36:02 10° N 22:39:49 47° ENE 22:40:13 45° E
ALOS 2 3.3 22:41:06 38° WSW 22:41:31 39° W 22:45:39 10° NNW
Cosmos 2263 4.2 22:43:18 44° SSW 22:45:15 87° ESE 22:51:06 10° NNE
CZ-2D R/B 4.4 22:44:36 10° ENE 22:46:50 12° E 22:49:03 10° ESE
Cosmos 1356 Rocket 3.3 22:42:51 10° NNW 22:47:10 85° WSW 22:47:36 71° S
Cosmos 1066 Rocket 4.4 22:47:04 44° SSE 22:48:48 65° E 22:54:24 10° NNE
Meteor 2-4 Rocket 4.1 22:47:04 35° SW 22:49:18 56° WNW 22:54:50 10° N
Cosmos 1766 4.0 22:46:47 10° N 22:50:36 43° ENE 22:51:12 40° E
Meteor 1-13 Rocket 4.1 22:51:57 48° S 22:53:36 88° E 22:59:10 10° NNE
SL-27 R/B 3.2 22:51:20 10° NNW 22:53:51 43° WNW 22:53:51 43° WNW
BREEZE-M DEB (TANK) 4.2 22:47:05 10° WNW 22:58:07 43° SW 22:58:40 42° SSW
COSMOS 2455 4.0 22:53:06 10° NNW 22:58:49 41° NE 23:04:28 10° ESE
Cosmos 1605 Rocket 4.3 22:53:30 10° N 22:59:40 59° ENE 23:02:44 30° SE
PSLV R/B 3.6 22:55:48 10° NNE 23:00:12 67° ESE 23:00:45 59° SE
Resurs 1-4 Rocket 4.2 22:57:54 10° NE 23:01:09 16° E 23:03:35 12° ESE
Sich 1 Rocket 3.5 22:58:41 10° NNW 23:03:17 83° W 23:04:02 62° S
RESURS DK-1 3.1 23:00:00 10° NW 23:03:31 38° W 23:03:31 38° W
Cosmos 2227 Rocket 4.2 22:59:43 10° NNW 23:04:24 26° NE 23:09:04 10° E
Meteor 1-23 Rocket 4.4 23:03:13 42° SSE 23:05:09 65° E 23:10:56 10° NNE
Cosmos 2150 Rocket 4.1 23:04:29 43° SW 23:06:13 74° WNW 23:11:32 10° NNE
SeaSat 1 2.4 23:02:27 10° NNE 23:07:24 71° ESE 23:08:32 52° S
Cosmos 2297 Rocket 3.8 23:02:41 10° NNW 23:07:44 32° NE 23:12:46 10° ESE
NOSS 2-1 (E) 4.2 23:04:38 10° NW 23:09:26 83° NE 23:14:21 19° SE
Cosmos 1461 4.2 23:07:22 22° W 23:09:59 42° NW 23:14:22 10° NNE
Cosmos 1470 4.4 23:08:11 10° N 23:11:35 28° ENE 23:13:00 22° ESE
Cosmos 1400 Rocket 3.6 23:12:20 10° N 23:16:19 46° ENE 23:17:25 36° ESE
USA 215 3.2 23:13:56 28° SSE 23:17:26 60° SW 23:23:54 10° WNW
ISS -3.5 23:18:16 67° NNE 23:18:16 67° NNE 23:21:23 10° ENE
Cosmos 494 Rocket 4.5 23:14:31 10° NW 23:19:23 42° WSW 23:20:07 39° SW
Cosmos 1300 Rocket 3.6 23:16:45 10° NNW 23:21:07 63° W 23:21:41 56° SW
Okean 2 Rocket 3.0 23:18:51 10° NNW 23:23:15 75° W 23:23:56 60° SSW
Cosmos 2151 Rocket 3.5 23:19:29 10° N 23:24:03 88° ENE 23:25:02 55° SSE
Cosmos 1867 3.9 23:25:56 30° WSW 23:28:37 63° NW 23:34:05 10° NE
Cosmos 1125 Rocket 3.8 23:26:49 38° SW 23:28:41 61° WNW 23:33:53 10° NNE
Cosmos 1842 3.7 23:29:12 46° ESE 23:29:41 50° E 23:33:27 10° NNE
Cosmos 44 Rocket 3.4 23:25:04 10° NW 23:30:14 60° WSW 23:31:24 48° S
CZ-4 R/B 4.1 23:27:17 10° NNE 23:32:06 57° E 23:33:29 41° SSE
Cosmos 1378 4.5 23:34:53 27° W 23:35:16 28° WNW 23:38:32 10° N
Helios 1B rocket 4.3 23:32:37 10° NE 23:35:52 22° E 23:37:16 18° ESE
ATLAS CENTAUR R/B 1.5 23:38:29 47° W 23:39:09 56° NW 23:42:57 10° NE
Cosmos 1934 Rocket 4.3 23:34:08 10° NNW 23:40:02 50° W 23:42:10 35° SW
Cosmos 2344 4.4 23:31:36 10° NW 23:40:43 60° WSW 23:51:08 16° SSE
USA 281 3.2 23:36:59 20° SSE 23:41:45 83° ENE 23:48:21 10° NNW
YAOGAN 11 4.0 23:41:08 55° S 23:41:59 74° WSW 23:46:18 10° NNW
Cosmos 1726 2.8 23:38:54 10° N 23:42:32 49° ENE 23:43:27 38° ESE
Meteor 1-22 Rocket 4.3 23:36:33 10° NNW 23:42:33 80° W 23:45:13 36° S
Cosmos 2219 4.1 23:43:13 10° NNW 23:48:46 49° NE 23:54:19 10° SE
USA 81 4.2 23:43:40 10° NNW 23:48:54 62° W 23:50:37 41° SSW
